| time (UTC) | temp C | wind direction | speed KPH | gust KPH | rain 1hr cm | rain 24hr cm | rain mn cm | humidity % | barometer mb |
| 20260507053828 | 18 | 0.0 | 0.0 | 0.00 | 0.00 | 0.00 | 33 | 970.0 | |
| 20260506190037 | 31 | 0.0 | 0.0 | 0.00 | 0.00 | 0.00 | 27 | 965.4 | |
| 20260506185536 | 32 | 0.0 | 0.0 | 0.00 | 0.00 | 0.00 | 27 | 965.4 | |
| 20260506185037 | 32 | 0.0 | 0.0 | 0.00 | 0.00 | 0.00 | 27 | 965.3 | |
| 20260506173250 | 35 | 0.0 | 0.0 | 0.00 | 0.00 | 0.00 | 27 | 959.6 | |
| 20260506172750 | 35 | 0.0 | 0.0 | 0.00 | 0.00 | 0.00 | 26 | 959.7 | |
| 20260506172250 | 35 | 0.0 | 0.0 | 0.00 | 0.00 | 0.00 | 26 | 959.5 | |
| 20260506171750 | 36 | 0.0 | 0.0 | 0.00 | 0.00 | 0.00 | 26 | 959.6 | |
| 20260506171250 | 36 | 0.0 | 0.0 | 0.00 | 0.00 | 0.00 | 26 | 959.6 | |
| 20260506170750 | 36 | 0.0 | 0.0 | 0.00 | 0.00 | 0.00 | 26 | 959.5 | |
| 20260506170250 | 36 | 0.0 | 0.0 | 0.00 | 0.00 | 0.00 | 26 | 959.5 | |
| 20260506165750 | 36 | 0.0 | 0.0 | 0.00 | 0.00 | 0.00 | 26 | 959.5 | |
| 20260506165250 | 36 | 0.0 | 0.0 | 0.00 | 0.00 | 0.00 | 26 | 959.5 | |
| 20260506164750 | 36 | 0.0 | 0.0 | 0.00 | 0.00 | 0.00 | 25 | 959.6 | |
| 20260506164250 | 36 | 0.0 | 0.0 | 0.00 | 0.00 | 0.00 | 26 | 959.6 | |
| 20260506163750 | 36 | 0.0 | 0.0 | 0.00 | 0.00 | 0.00 | 26 | 959.6 | |
| 20260506163250 | 36 | 0.0 | 0.0 | 0.00 | 0.00 | 0.00 | 26 | 959.6 | |
| 20260506162751 | 36 | 0.0 | 0.0 | 0.00 | 0.00 | 0.00 | 25 | 959.7 | |
| 20260506162250 | 37 | 0.0 | 0.0 | 0.00 | 0.00 | 0.00 | 25 | 959.6 | |
| 20260506161750 | 37 | 0.0 | 0.0 | 0.00 | 0.00 | 0.00 | 25 | 959.6 | |
| 20260506161250 | 37 | 0.0 | 0.0 | 0.00 | 0.00 | 0.00 | 25 | 959.7 | |
| 20260506155750 | 37 | 0.0 | 0.0 | 0.00 | 0.00 | 0.00 | 24 | 959.9 | |
| 20260506155251 | 38 | 0.0 | 0.0 | 0.00 | 0.00 | 0.00 | 24 | 959.9 | |
| 20260506154750 | 38 | 0.0 | 0.0 | 0.00 | 0.00 | 0.00 | 24 | 960.0 | |
| 20260506154250 | 38 | 0.0 | 0.0 | 0.00 | 0.00 | 0.00 | 25 | 960.0 | |
| 20260506153750 | 38 | 0.0 | 0.0 | 0.00 | 0.00 | 0.00 | 25 | 960.0 | |
| 20260506153250 | 37 | 0.0 | 0.0 | 0.00 | 0.00 | 0.00 | 25 | 959.9 | |
| 20260506152750 | 37 | 0.0 | 0.0 | 0.00 | 0.00 | 0.00 | 25 | 960.0 | |
| 20260506152250 | 37 | 0.0 | 0.0 | 0.00 | 0.00 | 0.00 | 26 | 960.0 | |
| 20260506151750 | 37 | 0.0 | 0.0 | 0.00 | 0.00 | 0.00 | 26 | 960.1 | |
| 20260506151250 | 37 | 0.0 | 0.0 | 0.00 | 0.00 | 0.00 | 26 | 960.1 | |
| 20260506150750 | 38 | 0.0 | 0.0 | 0.00 | 0.00 | 0.00 | 25 | 960.1 | |
| 20260506150250 | 37 | 0.0 | 0.0 | 0.00 | 0.00 | 0.00 | 26 | 963.3 | |
| 20260506145745 | 36 | 0.0 | 0.0 | 0.00 | 0.00 | 0.00 | 28 | 965.7 | |
| 20260506145245 | 33 | 0.0 | 0.0 | 0.00 | 0.00 | 0.00 | 29 | 971.6 | |
| 20260506144745 | 32 | 0.0 | 0.0 | 0.00 | 0.00 | 0.00 | 30 | 979.7 | |
| 20260506144245 | 30 | 0.0 | 0.0 | 0.00 | 0.00 | 0.00 | 33 | 987.0 |